Change the Weather History Date:

Wednesday, September 26, 2012

  Actual Average Record
Temperature  
Mean Temperature 53 °F -  
Max Temperature 58 °F 58 °F 66 °F (1996)
Min Temperature 48 °F 46 °F 35 °F (2007)
Degree Days  
Heating Degree Days 12    
Growing Degree Days 3 (Base 50)    
Moisture  
Dew Point 48 °F    
Average Humidity 85    
Maximum Humidity 100    
Minimum Humidity 66    
Precipitation  
Precipitation 0.20 in 0.09 in - ()
Sea Level Pressure  
Sea Level Pressure 29.38 in    
Wind  
Wind Speed 18 mph ()    
Max Wind Speed 26 mph    
Max Gust Speed 39 mph    
Visibility 6.1 miles    
Events Rain    
Averages and records for this station are not official NWS values.
T = Trace of Precipitation, MM = Missing Value Source: Averaged Metar Reports

Daily Weather History Graph

Daily Weather History Graph

Search for Another Location

Airport or City:

Trip Planner

Search our weather history database for the weather conditions in past years. The results will help you decide how hot, cold, wet, or windy it might be!

Date:

Astronomy

Sep. 26, 2012 Rise Set
Actual Time 7:18 AM IST 7:13 PM IST
Civil Twilight 6:43 AM IST 7:47 PM IST
Nautical Twilight 6:02 AM IST 8:28 PM IST
Astronomical Twilight 5:20 AM IST 9:11 PM IST
Moon 5:26 PM IST (9/26) 3:02 AM IST (9/26)
Length of Visible Light 13h 04m
Length of Day
11h 54m
Waxing Gibbous, 86% of the Moon is Illuminated
Sep 26
Waxing Gibbous
Sep 30
Full
Oct 8
Last Quarter
Oct 15
New
Oct 22
First Quarter

Hourly Weather History & Observations

Time (IST) Temp. Dew Point Humidity Pressure Visibility Wind Dir Wind Speed Gust Speed Precip Events Conditions
12:00 AM 50.0 °F 48.2 °F 94% 29.12 in 6.2 mi NNW 23.0 mph - N/A Rain Light Rain
12:30 AM 50.0 °F 48.2 °F 94% 29.12 in 6.2 mi NNW 19.6 mph - N/A Rain Light Rain
1:00 AM 50 °F 47 °F 88% 29.14 in 6 mi North 13.4 mph - - Rain Rain
1:00 AM 50.0 °F 48.2 °F 94% 29.12 in 5.6 mi North 11.5 mph - N/A Rain Light Rain
1:30 AM 50.0 °F 48.2 °F 94% 29.12 in 6.2 mi NNW 20.7 mph - N/A Rain Light Rain
2:00 AM 50.0 °F 48.2 °F 94% 29.12 in 6.2 mi NNW 18.4 mph 31.1 mph N/A Rain Light Rain
2:30 AM 50.0 °F 48.2 °F 94% 29.12 in 6.2 mi NNW 21.9 mph - N/A Rain Light Rain
3:00 AM 50.0 °F 48.2 °F 94% 29.12 in 6.2 mi NNW 20.7 mph - N/A Rain Light Rain
3:30 AM 50.0 °F 48.2 °F 94% 29.15 in 5.0 mi North 20.7 mph - N/A Rain Rain
4:00 AM 48.2 °F 48.2 °F 100% 29.15 in 5.6 mi North 16.1 mph - N/A Rain Rain
4:30 AM 48.2 °F 48.2 °F 100% 29.15 in 6.2 mi North 16.1 mph - N/A Rain Light Rain
5:00 AM 50.0 °F 46.4 °F 87% 29.15 in 6.2 mi NNE 24.2 mph - N/A Rain Light Rain
5:30 AM 50.0 °F 46.4 °F 87% 29.18 in 6.2 mi North 25.3 mph - N/A Rain Light Rain
6:00 AM 50.0 °F 48.2 °F 94% 29.18 in 6.2 mi North 23.0 mph - N/A Rain Light Rain
6:30 AM 50.0 °F 48.2 °F 94% 29.21 in 5.6 mi North 20.7 mph 32.2 mph N/A Rain Light Rain
7:00 AM 51 °F 48 °F 87% 29.24 in 6 mi North 24.6 mph - - Rain Light Rain
7:00 AM 50.0 °F 48.2 °F 94% 29.21 in 5.6 mi North 24.2 mph - N/A Rain Light Rain
7:30 AM 50.0 °F 48.2 °F 94% 29.24 in 6.2 mi NNE 19.6 mph 34.5 mph N/A Rain Light Rain
8:00 AM 51.8 °F 48.2 °F 88% 29.24 in 5.6 mi North 24.2 mph - N/A Rain Light Rain
8:30 AM 51.8 °F 50.0 °F 94% 29.27 in 5.0 mi North 25.3 mph 39.1 mph N/A Rain Light Rain
9:00 AM 51.8 °F 50.0 °F 94% 29.30 in 5.6 mi NNE 20.7 mph - N/A Rain Light Rain
9:30 AM 51.8 °F 50.0 °F 94% 29.33 in 6.2 mi NNE 23.0 mph - N/A Rain Light Rain
10:00 AM 51.8 °F 50.0 °F 94% 29.33 in 6.2 mi NNE 17.3 mph - N/A Rain Light Rain
10:30 AM 53.6 °F 50.0 °F 88% 29.36 in 6.2 mi North 20.7 mph - N/A   Mostly Cloudy
11:00 AM 53.6 °F 50.0 °F 88% 29.39 in 6.2 mi NNE 24.2 mph - N/A   Mostly Cloudy
11:30 AM 55.4 °F 50.0 °F 82% 29.39 in 6.2 mi NNE 24.2 mph 35.7 mph N/A   Scattered Clouds
12:00 PM 55.4 °F 50.0 °F 82% 29.42 in 6.2 mi NNE 26.5 mph 39.1 mph N/A   Scattered Clouds
12:30 PM 57.2 °F 50.0 °F 77% 29.44 in 6.2 mi NNE 26.5 mph - N/A   Scattered Clouds
1:00 PM 57.2 °F 50.0 °F 77% 29.44 in 6.2 mi NNE 26.5 mph - N/A   Scattered Clouds
1:30 PM 57.2 °F 50.0 °F 77% 29.47 in 6.2 mi North 23.0 mph - N/A   Mostly Cloudy
2:00 PM 57.2 °F 50.0 °F 77% 29.47 in 6.2 mi North 21.9 mph - N/A   Mostly Cloudy
2:30 PM 57.2 °F 48.2 °F 72% 29.47 in 6.2 mi North 23.0 mph - N/A   Mostly Cloudy
3:00 PM 57.2 °F 48.2 °F 72% 29.50 in 6.2 mi North 23.0 mph - N/A   Mostly Cloudy
3:30 PM 59.0 °F 48.2 °F 67% 29.50 in 6.2 mi North 20.7 mph - N/A   Scattered Clouds
4:00 PM 57.2 °F 50.0 °F 77% 29.50 in 6.2 mi NNE 19.6 mph - N/A   Scattered Clouds
4:30 PM 57.2 °F 46.4 °F 67% 29.53 in 6.2 mi North 18.4 mph - N/A   Scattered Clouds
5:00 PM 57.2 °F 48.2 °F 72% 29.53 in 6.2 mi North 17.3 mph - N/A   Scattered Clouds
5:30 PM 57.2 °F 48.2 °F 72% 29.56 in 6.2 mi North 15.0 mph - N/A   Scattered Clouds
6:00 PM 57.2 °F 48.2 °F 72% 29.56 in 6.2 mi North 12.7 mph - N/A   Mostly Cloudy
6:30 PM 55.4 °F 48.2 °F 77% 29.56 in 6.2 mi NNW 11.5 mph - N/A   Mostly Cloudy
7:00 PM 55 °F 47 °F 66% 29.60 in 31 mi NNW 13.4 mph - -   Mostly Cloudy
7:00 PM 55.4 °F 48.2 °F 77% 29.59 in 6.2 mi NNW 12.7 mph - N/A   Mostly Cloudy
7:30 PM 53.6 °F 46.4 °F 77% 29.59 in 6.2 mi NNW 16.1 mph - N/A   Scattered Clouds
8:00 PM 51.8 °F 46.4 °F 82% 29.62 in 6.2 mi NNW 17.3 mph - N/A   Partly Cloudy
8:30 PM 51.8 °F 46.4 °F 82% 29.65 in 6.2 mi NNW 15.0 mph - N/A   Partly Cloudy
9:00 PM 50.0 °F 46.4 °F 87% 29.65 in 6.2 mi NNW 15.0 mph - N/A   Partly Cloudy
9:30 PM 50.0 °F 46.4 °F 87% 29.65 in 6.2 mi NNW 12.7 mph - N/A   Partly Cloudy
10:00 PM 48.2 °F 46.4 °F 93% 29.68 in 6.2 mi NNW 12.7 mph - N/A   Partly Cloudy
10:30 PM 48.2 °F 46.4 °F 93% 29.68 in 6.2 mi NW 12.7 mph - N/A   Partly Cloudy
11:00 PM 48.2 °F 44.6 °F 87% 29.68 in 6.2 mi NW 11.5 mph - N/A   Partly Cloudy
11:30 PM 48.2 °F 44.6 °F 87% 29.68 in 6.2 mi NW 11.5 mph - N/A   Mostly Cloudy